Observations
| Time | Sensor | AQI | SAQ | Temp °C | Hum % | Pres Pa | CO μg/m³ | H₂S μg/m³ | NO μg/m³ | NO₂ μg/m³ | O₃ μg/m³ | SO₂ μg/m³ | CO₂e PPM | VOC PPM | PM1 μg/m³ | PM2.5 μg/m³ | PM4 μg/m³ | PM10 μg/m³ | TPS µm |
|---|---|---|---|---|---|---|---|---|---|---|---|---|---|---|---|---|---|---|---|
| Thursday 13 August 2026 | |||||||||||||||||||
| 11:30 | Trim Market St | 2 | 31 | 48 | 60,218 | 0 | 0 | 0.67 | 13 | 39.02 | 0 | 0.71 | 3.05 | 3.36 | |||||
| 11:29 | Trim Patrick St | 2 | 30.3 | 50 | 69,595 | 0 | 0 | 0.77 | 13.15 | 42.17 | 14.92 | 3.71 | 8.72 | 9.6 | |||||
| 11:25 | Trim Patrick St | 2 | 30.4 | 50 | 69,559 | 0 | 0 | 0.79 | 12.79 | 55.24 | 15.42 | 2.86 | 8.74 | 9.61 | |||||
| 11:24 | Trim Market St | 2 | 31.1 | 48 | 60,477 | 0 | 0 | 0.64 | 13.45 | 61.68 | 0 | 0.71 | 2.52 | 2.77 | |||||
| 11:23 | Trim Market St | 2 | 31.1 | 48 | 60,677 | 0 | 0 | 0.63 | 12.32 | 34 | 0 | 0.71 | 2.53 | 2.99 | |||||
| 11:22 | Trim Market St | 2 | 31.1 | 48 | 60,556 | 0 | 0 | 0.64 | 11.91 | 39.53 | 0 | 0.71 | 3.04 | 3.34 | |||||
| 11:21 | Trim Market St | 2 | 31.1 | 49 | 60,209 | 0 | 0 | 0.65 | 8.91 | 0 | 0 | 0 | 2.5 | 3.01 | |||||
| 11:21 | Trim Patrick St | 2 | 30.5 | 50 | 69,610 | 0 | 0 | 0.77 | 13.07 | 44.54 | 15.12 | 2.86 | 7.96 | 8.76 | |||||
| 11:20 | Trim Market St | 2 | 31.2 | 49 | 59,555 | 0 | 0 | 0.64 | 12.41 | 36.64 | 0 | 0 | 2.5 | 2.76 | |||||
| 11:19 | Trim Market St | 2 | 31.2 | 49 | 58,943 | 0 | 0 | 0.65 | 13.31 | 11.29 | 0 | 0.71 | 3.53 | 3.77 | |||||
| 11:18 | Trim Market St | 2 | 31.1 | 49 | 58,438 | 0 | 0 | 0.68 | 13.16 | 61.67 | 0 | 0.71 | 3 | 3.02 | |||||
| 11:17 | Trim Market St | 2 | 31.1 | 49 | 58,426 | 0 | 0 | 0.6 | 13 | 37.61 | 0 | 0.71 | 3.02 | 3.32 | |||||
| 11:16 | Trim Market St | 2 | 31.1 | 49 | 58,061 | 0 | 0 | 0.63 | 13.64 | 25.94 | 0 | 1.43 | 3.51 | 3.78 | |||||
| 11:15 | Trim Patrick St | 1 | 30.5 | 50 | 69,677 | 0 | 0 | 0.81 | 13.64 | 54.52 | 15.32 | 2 | 7.16 | 7.87 | |||||
| 11:15 | Trim Market St | 2 | 31 | 50 | 57,634 | 0.01 | 0 | 0.68 | 13.51 | 34.33 | 0 | 0.71 | 2.99 | 3.04 | |||||
| 11:14 | Trim Patrick St | 2 | 30.4 | 50 | 69,681 | 0 | 0 | 0.82 | 13.65 | 55.07 | 15.16 | 2.86 | 7.92 | 8.71 | |||||
| 11:14 | Trim Market St | 2 | 30.9 | 50 | 57,081 | 0 | 0 | 0.7 | 13.78 | 59.2 | 0 | 0 | 1.94 | 2.14 | |||||
| 11:13 | Trim Patrick St | 1 | 30.4 | 50 | 69,681 | 0 | 0 | 0.85 | 13.67 | 50.65 | 14.95 | 2.86 | 7.14 | 7.86 | |||||
| 11:13 | Trim Market St | 2 | 30.8 | 50 | 56,757 | 0 | 0 | 0.71 | 12.94 | 23.35 | 0 | 0.71 | 2.45 | 2.69 | |||||
| 11:12 | Trim Patrick St | 1 | 30.3 | 51 | 69,713 | 0 | 0 | 0.86 | 13.8 | 58.18 | 15.06 | 2 | 7.1 | 7.81 | |||||